Flag for U.S.A. Weather past 2 weeks in McAllen, Texas, U.S.A.

Now
83 °F

Overcast.


Feels Like: 89 °F
Forecast: 74 / 89 °F
Wind: 3 mph from South

Location: Miller International Airport

Current Time: Sep 30, 2014 at 1:48:37 PM

Latest Report: Sep 30, 2014 at 12:53 PM


Visibility: 10 mi

Pressure: 29.83 "Hg

Humidity: 74%

Dew point: 74 °F

Location of McAllenLocation

Historic Weather in McAllen — Graph

°F

McAllen temperature yesterday

Maximum temperature yesterday: 88 °F (at 3:53 PM)
Minimum temperature yesterday: 72 °F (at 5:53 AM)
Average temperature yesterday: 79 °F

Past Weeks' High & Low Weather Summary

 TemperatureHumidityPressure
High93 °F (Sep 19, 4:53 PM)100% (Sep 17, 6:53 AM)30.09 "Hg (Sep 17, 6:53 AM)
Low70 °F (Sep 27, 11:53 PM)46% (Sep 25, 5:53 PM)29.74 "Hg (Sep 18, 4:53 PM)
Average80 °F82%29.93 "Hg
* Reported Sep 15 11:53 AM — Sep 30 11:53 AM, McAllen, Weather by CustomWeather, © 2014

Note: Actual official high and low records may vary slightly from our data, if they occured in-between our weather recording intervals... More about our weather records

Advertising

McAllen weather history for previous 24 hours

 ConditionsComfort  
Time TempWeatherWind HumidityBarometerVisibility
11:53 AM
Sep 30
81 °FMore clouds than sun.6 mph82%29.85 "Hg10 mi
10:53 AM80 °FMostly cloudy.No wind81%29.86 "Hg10 mi
9:53 AM77 °FMostly cloudy.5 mph94%29.86 "Hg10 mi
9:03 AM77 °FMostly cloudy.6 mph94%29.86 "Hg10 mi
8:53 AM78 °FCloudy.3 mph90%29.84 "Hg10 mi
7:53 AM76 °FMostly cloudy.No wind94%29.83 "Hg8 mi
6:53 AM76 °FLight rain. Low clouds.No wind97%29.83 "Hg7 mi
5:53 AM76 °FLight rain. Low clouds.No wind97%29.83 "Hg9 mi
4:53 AM76 °FMostly cloudy.No wind97%29.82 "Hg8 mi
3:53 AM76 °FLow clouds.No wind97%29.83 "Hg10 mi
3:01 AM75 °FMostly cloudy.No wind94%29.85 "Hg10 mi
1:53 AM77 °FMostly cloudy.3 mph94%29.85 "Hg10 mi
1:04 AM79 °FLight rain. Fog.3 mph89%29.87 "Hg5 mi
12:53 AM78 °FOvercast.No wind90%29.86 "Hg10 mi
11:53 PM
Sep 29
78 °FMostly cloudy.5 mph90%29.87 "Hg10 mi
10:53 PM78 °FMostly cloudy.7 mph87%29.88 "Hg10 mi
9:53 PM79 °FOvercast.6 mph82%29.87 "Hg10 mi
8:53 PM78 °FOvercast.9 mph82%29.86 "Hg10 mi
7:53 PM78 °FOvercast.16 mph79%29.85 "Hg10 mi
6:53 PM81 °FScattered clouds.15 mph74%29.85 "Hg10 mi
5:53 PM83 °FScattered clouds.15 mph72%29.84 "Hg10 mi
4:53 PM85 °FSunny.16 mph65%29.83 "Hg10 mi
3:53 PM88 °FScattered clouds.15 mph61%29.84 "Hg10 mi
2:53 PM86 °FBroken clouds.14 mph65%29.85 "Hg10 mi
1:53 PM87 °FScattered clouds.9 mph63%29.87 "Hg10 mi
Weather by CustomWeather, © 2014

See weather overviewHow to use our weather pages